Regional Weather Roundup
Issued by NWS Spokane, WA

Home | Current Version | Previous Version | Text Only | Print | Product List | Glossary On
Versions: 1 2 3 4 5 6 7 8 9 10 11 12 13 14 15 16 17 18 19 20 21 22 23 24 25 26 27 28 29 30 31 32 33 34 35 36 37 38 39 40 41 42 43 44 45 46 47 48 49 50
000
NZUS01 KOTX 300510
RWROTX
EASTERN WASHINGTON/NORTHERN IDAHO ROUNDUP
NATIONAL WEATHER SERVICE, SPOKANE WA
1000 PM PDT SUN MAY 29 2016

Note: "fair" indicated few or no clouds below 12,000 feet with no
significant weather and/or obstructions to visibility.

...NORTHEAST WASHINGTON AND NORTHERN IDAHO PANHANDLE...

CITY           SKY/WX    TMP DP  RH WIND       PRES   REMARKS
SPOKANE INTL   PTCLDY    55  37  50 N12       30.04R
SPOKANE DOWNTO CLEAR     57  41  55 N10G22    30.05R
COEUR D ALENE  CLOUDY    55  37  50 N15       30.01R
DEER PARK      PTCLDY    51  38  60 NE12      30.06R
SANDPOINT      PTCLDY    52  41  66 N17       30.04R
BONNERS FERRY  CLOUDY    46  41  81 N7        30.07R

...SOUTHEAST WASHINGTON AND SOUTHERN IDAHO PANHANDLE...

CITY           SKY/WX    TMP DP  RH WIND       PRES   REMARKS
WALLA WALLA    MOCLDY    61  38  42 S8        30.09R
PULLMAN/MOSCOW CLOUDY    59  38  45 W10       30.06R
LEWISTON       MOCLDY    67  39  35 W12       30.02R
LOWELL           N/A     58  52  80 CALM      30.04R

...COLUMBIA BASIN...

CITY           SKY/WX    TMP DP  RH WIND       PRES   REMARKS
EPHRATA        CLEAR     60  32  34 NW15G25   30.07R
MOSES LAKE     CLEAR     59  31  34 NW14      30.08R
TRI CITIES     CLEAR     61  36  39 NW18      30.07R
HERMISTON      CLEAR     62  43  49 W10       30.09R
PENDLETON      CLEAR     60  39  45 W21       30.09R

...EAST SLOPES CASCADES...

CITY           SKY/WX    TMP DP  RH WIND       PRES   REMARKS
THE DALLES     CLEAR     64  42  44 W14       30.13R
YAKIMA         CLEAR     57  38  48 W9        30.13R
ELLENSBURG     CLEAR     53  40  61 NW15G23   30.15R
STAMPEDE PASS  CLEAR     40  36  86 VRB5      30.21R
WENATCHEE      CLEAR     58  31  35 NW10      30.12R
OMAK           CLEAR     55  34  45 N15       30.10R

...SOUTHERN BRITISH COLUMBIA...

CITY           SKY/WX    TMP DP  RH WIND       PRES   REMARKS
PENTICTON      CLEAR     48  39  71 N8        30.14R

...WESTERN MONTANA...

CITY           SKY/WX    TMP DP  RH WIND       PRES   REMARKS
MISSOULA       PTCLDY    53  45  74 SE5       30.03R

...NEIGHBORING CITIES...

CITY           SKY/WX    TMP DP  RH WIND       PRES   REMARKS
SEATTLE        PTCLDY    57  43  59 NE6       30.23R
CALGARY        SHOWER    43  41  93 N15G22    29.99R



USA.gov is the U.S. government's official web portal to all federal, state and local government web resources and services.